Flag for Canada Weather past 2 weeks in Cornwall, Ontario, Canada

Now
27 °F

Chilly.


Feels Like: 27 °F
Forecast: 30 / 60 °F
Wind: 1 mph from Northeast

Location: St Anicet


UV Index: 3 (Moderate)

Visibility: N/A


Pressure: 30.48 "Hg

Humidity: 97%

Dew point: 26 °F

Location of CornwallLocation

Historic Weather in Cornwall

°F

Cornwall temperature yesterday

Maximum temperature yesterday: 50 °F (at 6:00 PM)
Minimum temperature yesterday: 31 °F (at 11:00 PM)
Average temperature yesterday: 43 °F

Past Weeks' High & Low Weather Summary

 TemperatureHumidityPressure
High83 °F (Apr 14, 3:00 PM)100% (Apr 8, 7:00 AM)30.76 "Hg (Apr 8, 7:00 AM)
Low20 °F (Apr 16, 7:00 AM)29% (Apr 10, 4:00 PM)29.22 "Hg (Apr 8, 1:00 PM)
Average41 °F71%30.00 "Hg
* Reported Apr 5 2:00 AM — Apr 20 2:00 AM, Cornwall, Weather by CustomWeather, © 2014

Note: Actual official high and low records may vary slightly from our data, if they occured in-between our weather recording intervals... More about our weather records

Advertising

Historic Weather Conditions — Data for Previous 24 hours

 ConditionsComfort  
Time TempWeatherWind HumidityBarometerVisibility
2:00 AM
Apr 20
27 °FChilly.1 mph95%30.48 "HgN/A
1:00 AM28 °FChilly.No wind97%30.48 "HgN/A
12:00 AM29 °FChilly.1 mph97%30.47 "HgN/A
11:00 PM
Apr 19
31 °FChilly.1 mph93%30.45 "HgN/A
10:00 PM33 °FChilly.3 mph85%30.45 "HgN/A
9:00 PM35 °FChilly.3 mph79%30.43 "HgN/A
8:00 PM46 °FCool.3 mph39%30.41 "HgN/A
7:00 PM49 °FCool.6 mph34%30.40 "HgN/A
6:00 PM50 °FCool.8 mph34%30.39 "HgN/A
5:00 PM50 °FCool.10 mph38%30.39 "HgN/A
4:00 PM49 °FCool.10 mph44%30.39 "HgN/A
3:00 PM48 °FCool.12 mph42%30.39 "HgN/A
2:00 PM48 °FCool.12 mph45%30.38 "HgN/A
1:00 PM48 °FCool.9 mph49%30.38 "HgN/A
12:00 PM44 °FQuite cool.9 mph64%30.38 "HgN/A
11:00 AM43 °FQuite cool.12 mph62%30.37 "HgN/A
10:00 AM42 °FQuite cool.8 mph73%30.35 "HgN/A
9:00 AM41 °FQuite cool.8 mph84%30.33 "HgN/A
8:00 AM40 °FChilly.8 mph90%30.29 "HgN/A
7:00 AM40 °FQuite cool.7 mph93%30.25 "HgN/A
6:00 AM42 °FQuite cool.6 mph92%30.21 "HgN/A
5:00 AM42 °FQuite cool.7 mph97%30.19 "HgN/A
4:00 AM42 °FQuite cool.6 mph97%30.17 "HgN/A
3:00 AM43 °FQuite cool.7 mph96%30.16 "HgN/A
Weather by CustomWeather, © 2014

See weather overview